Weather History for Alpine, TX

Change the Weather History Date:

Tuesday, June 10, 2014

  Actual Average (KMRF) Record (KMRF)
Temperature  
Mean Temperature 73 °F -  
Max Temperature 93 °F 85 °F 96 °F (2011)
Min Temperature 53 °F 56 °F 48 °F (2014)
Cooling Degree Days 8    
Growing Degree Days 23 (Base 50)    
Moisture  
Dew Point 47 °F    
Average Humidity 42    
Maximum Humidity 71    
Minimum Humidity 16    
Precipitation  
Precipitation 0.00 in - - ()
Sea Level Pressure  
Sea Level Pressure 30.10 in    
Wind  
Wind Speed 4 mph (SSW)    
Max Wind Speed 14 mph    
Max Gust Speed 25 mph    
Visibility 10 miles    
Events      
Averages and records for this station are not official NWS values.
T = Trace of Precipitation, MM = Missing Value Source: NWS Daily Summary

Daily Weather History Graph

Daily Weather History Graph

Search for Another Location

Airport:

Trip Planner

Search our weather history database for the weather conditions in past years. The results will help you decide how hot, cold, wet, or windy it might be!

Date:

Astronomy

Jun. 10, 2014 Rise Set
Actual Time 6:52 AM CDT 8:56 PM CDT
Civil Twilight 6:24 AM CDT 9:23 PM CDT
Nautical Twilight 5:51 AM CDT 9:57 PM CDT
Astronomical Twilight 5:15 AM CDT 10:33 PM CDT
Moon 6:33 PM CDT (6/10) 4:48 AM CDT (6/10)
Length of Visible Light 14h 59m
Length of Day
14h 04m
Waxing Gibbous, 92% of the Moon is Illuminated
Jun 10
Waxing Gibbous
Jun 12
Full
Jun 19
Last Quarter
Jun 27
New
Jul 5
First Quarter

Hourly Weather History & Observations

Time (CDT) Temp. Dew Point Humidity Pressure Visibility Wind Dir Wind Speed Gust Speed Precip Events Conditions
12:15 AM 64.6 °F 45.3 °F 50% 30.12 in 10.0 mi Calm Calm - N/A   Clear
12:35 AM 66.2 °F 47.3 °F 51% 30.12 in 10.0 mi ESE 3.5 mph - N/A   Clear
12:55 AM 66.9 °F 48.4 °F 51% 30.11 in 10.0 mi SSE 4.6 mph - N/A   Clear
1:15 AM 66.0 °F 48.4 °F 53% 30.11 in 10.0 mi Calm Calm - N/A   Clear
1:35 AM 62.4 °F 46.6 °F 56% 30.11 in 10.0 mi Calm Calm - N/A   Clear
1:55 AM 65.1 °F 46.8 °F 51% 30.11 in 10.0 mi Calm Calm - N/A   Clear
2:15 AM 59.0 °F 45.0 °F 60% 30.11 in 10.0 mi West 3.5 mph - N/A   Clear
2:35 AM 57.9 °F 44.6 °F 61% 30.11 in 10.0 mi Calm Calm - N/A   Clear
2:55 AM 61.5 °F 46.6 °F 58% 30.10 in 10.0 mi West 3.5 mph - N/A   Clear
3:15 AM 61.2 °F 46.6 °F 59% 30.10 in 10.0 mi Calm Calm - N/A   Clear
3:35 AM 56.7 °F 44.8 °F 64% 30.11 in 10.0 mi Calm Calm - N/A   Clear
4:15 AM 56.1 °F 44.6 °F 65% 30.11 in 10.0 mi West 3.5 mph - N/A   Clear
4:35 AM 56.3 °F 44.8 °F 65% 30.11 in 10.0 mi West 3.5 mph - N/A   Clear
4:55 AM 55.9 °F 45.1 °F 67% 30.11 in 10.0 mi West 6.9 mph - N/A   Clear
5:15 AM 55.4 °F 45.0 °F 68% 30.11 in 10.0 mi West 8.1 mph - N/A   Clear
5:35 AM 56.5 °F 45.9 °F 68% 30.12 in 10.0 mi West 8.1 mph - N/A   Clear
5:55 AM 56.3 °F 46.0 °F 68% 30.13 in 10.0 mi West 5.8 mph - N/A   Clear
6:15 AM 55.9 °F 45.7 °F 68% 30.14 in 10.0 mi SW 4.6 mph - N/A   Clear
6:35 AM 53.8 °F 44.4 °F 71% 30.14 in 10.0 mi SSW 4.6 mph - N/A   Clear
6:55 AM 56.5 °F 45.5 °F 67% 30.15 in 10.0 mi WSW 3.5 mph - N/A   Clear
7:15 AM 55.6 °F 45.1 °F 68% 30.15 in 10.0 mi WSW 4.6 mph - N/A   Clear
7:35 AM 58.8 °F 46.2 °F 63% 30.15 in 10.0 mi West 5.8 mph - N/A   Clear
7:55 AM 62.1 °F 47.1 °F 58% 30.15 in 10.0 mi Calm Calm - N/A   Clear
8:15 AM 65.1 °F 48.2 °F 54% 30.16 in 10.0 mi Calm Calm - N/A   Clear
8:35 AM 67.3 °F 50.2 °F 54% 30.17 in 10.0 mi Calm Calm - N/A   Clear
8:55 AM 69.3 °F 49.8 °F 50% 30.17 in 10.0 mi Calm Calm - N/A   Clear
9:15 AM 70.2 °F 50.0 °F 49% 30.17 in 10.0 mi ENE 3.5 mph - N/A   Clear
9:35 AM 72.0 °F 50.0 °F 46% 30.17 in 10.0 mi Calm Calm - N/A   Clear
9:55 AM 72.5 °F 50.2 °F 45% 30.17 in 10.0 mi East 4.6 mph - N/A   Clear
10:15 AM 73.4 °F 50.0 °F 44% 30.18 in 10.0 mi Calm Calm - N/A   Clear
10:35 AM 74.8 °F 50.5 °F 42% 30.17 in 10.0 mi NNE 4.6 mph - N/A   Clear
10:55 AM 77.4 °F 52.2 °F 41% 30.17 in 10.0 mi East 9.2 mph - N/A   Clear
11:15 AM 79.2 °F 52.3 °F 39% 30.16 in 10.0 mi ENE 6.9 mph - N/A   Clear
11:35 AM 79.9 °F 52.7 °F 39% 30.16 in 10.0 mi ENE 13.8 mph 17.3 mph N/A   Clear
11:55 AM 81.3 °F 52.0 °F 36% 30.16 in 10.0 mi South 5.8 mph - N/A   Clear
12:15 PM 81.5 °F 52.5 °F 37% 30.15 in 10.0 mi NW 10.4 mph - N/A   Clear
1:15 PM 85.5 °F 50.4 °F 30% 30.14 in 10.0 mi SW 5.8 mph - N/A   Clear
1:35 PM 86.5 °F 50.2 °F 28% 30.13 in 10.0 mi SSW 6.9 mph 17.3 mph N/A   Clear
1:55 PM 86.9 °F 50.2 °F 28% 30.13 in 10.0 mi SSW 4.6 mph 16.1 mph N/A   Clear
2:15 PM 88.2 °F 49.3 °F 26% 30.12 in 10.0 mi SW 6.9 mph - N/A   Clear
2:35 PM 88.5 °F 49.1 °F 26% 30.11 in 10.0 mi SSW 10.4 mph - N/A   Scattered Clouds
2:55 PM 88.0 °F 48.0 °F 25% 30.11 in 10.0 mi WSW 9.2 mph 17.3 mph N/A   Scattered Clouds
3:55 PM 89.2 °F 46.6 °F 23% 30.08 in 10.0 mi West 3.5 mph - N/A   Scattered Clouds
4:15 PM 91.2 °F 46.2 °F 21% 30.08 in 10.0 mi WSW 4.6 mph 17.3 mph N/A   Scattered Clouds
4:55 PM 90.5 °F 44.1 °F 20% 30.05 in 10.0 mi SSW 9.2 mph - N/A   Scattered Clouds
5:15 PM 91.2 °F 41.9 °F 18% 30.04 in 10.0 mi Calm Calm - N/A   Scattered Clouds
5:35 PM 92.3 °F 41.5 °F 17% 30.04 in 10.0 mi WSW 8.1 mph - N/A   Mostly Cloudy
5:55 PM 92.3 °F 40.8 °F 17% 30.03 in 10.0 mi Calm Calm - N/A   Scattered Clouds
6:15 PM 91.9 °F 41.2 °F 17% 30.02 in 10.0 mi SSW 5.8 mph - N/A   Scattered Clouds
6:55 PM 91.8 °F 41.2 °F 17% 30.01 in 10.0 mi SW 6.9 mph - N/A   Scattered Clouds
7:15 PM 93.4 °F 41.2 °F 16% 30.01 in 10.0 mi West 11.5 mph 25.3 mph N/A   Clear
7:35 PM 91.9 °F 44.1 °F 19% 30.01 in 10.0 mi SW 11.5 mph - N/A   Scattered Clouds
7:55 PM 90.7 °F 42.8 °F 19% 30.01 in 10.0 mi SSW 4.6 mph - N/A   Mostly Cloudy
8:15 PM 90.7 °F 43.5 °F 19% 30.02 in 10.0 mi South 5.8 mph - N/A   Mostly Cloudy
8:55 PM 86.5 °F 43.9 °F 22% 30.03 in 10.0 mi SSE 6.9 mph - N/A   Scattered Clouds
9:15 PM 84.9 °F 43.7 °F 23% 30.04 in 10.0 mi SE 8.1 mph - N/A   Clear
9:35 PM 83.5 °F 44.6 °F 25% 30.04 in 10.0 mi SE 3.5 mph - N/A   Clear
10:15 PM 81.0 °F 44.6 °F 28% 30.05 in 10.0 mi SE 8.1 mph - N/A   Clear
10:35 PM 79.5 °F 44.8 °F 29% 30.06 in 10.0 mi South 9.2 mph - N/A   Clear
10:55 PM 78.8 °F 45.0 °F 30% 30.07 in 10.0 mi South 8.1 mph - N/A   Clear
11:15 PM 77.7 °F 44.8 °F 31% 30.08 in 10.0 mi South 4.6 mph - N/A   Clear
11:35 PM 77.0 °F 45.0 °F 32% 30.08 in 10.0 mi South 8.1 mph - N/A   Clear
11:55 PM 76.6 °F 45.5 °F 33% 30.08 in 10.0 mi South 11.5 mph 16.1 mph N/A   Clear